Tracking 28531 objects as of 27-Feb-2024
HD Live streaming from Space Station
objects crossing your sky now

TITAN 3C TRANSTAGE DEB

Track TITAN 3C TRANSTAGE DEB now!


NORAD ID: 43513
Int'l Code: 1969-013R
Perigee: 36,977.6 km
Apogee: 37,540.0 km
Inclination: 1.7 °
Period: 1,511.6 minutes
Semi major axis: 43629 km
RCS: Unknown
Launch date: February 9, 1969
Source: United States (US)
Launch site: AIR FORCE EASTERN TEST RANGE (AFETR)

Note: This is SATELLITE DEBRIS
Your satellite tracking list
Your tracking list is empty




NASA's NSSDC Master Catalog

Two Line Element Set (TLE):
1 43513U 69013R   24057.55402354 -.00000063  00000-0  00000-0 0  9991
2 43513   1.7229 237.0088 0064451 119.7946 239.9090  0.95263735 20367
Source of the keplerian elements: AFSPC